Location: Alfortville
(48.8058°N, 2.4204°E)
Time: 04:06:01
(UTC+00:00)

USA 229 DEB - Pass Details

Date: 05 June 2022
Orbit: 934 x 1278 km, 63.4° (Epoch: 24 May)

Event Time Altitude Azimuth Distance (km) Brightness Sun altitude
Rises 20:28:57 0° 316° (NW) 3,904 9.6 -5.8°
Reaches altitude 10° 20:31:38 10° 322° (NW) 2,994 7.9 -6.1°
Maximum altitude 20:38:39 52° 38° (NE) 1,443 4.5 -6.9°
Drops below altitude 10° 20:46:11 10° 113° (ESE) 3,207 5.6 -7.8°
Enters shadow 20:47:14 - 116° (ESE) 3,556 5.8 -7.9°
